Tracking 29747 objects as of 9-Oct-2024
HD Live streaming from Space Station
objects crossing your sky now

SL-14 DEB

Track SL-14 DEB now!
10-day predictions


NORAD ID: 45316
Int'l Code: 1991-056BE
Perigee: 1,072.3 km
Apogee: 1,229.3 km
Inclination: 82.6 °
Period: 108.2 minutes
Semi major axis: 7521 km
RCS: Unknown
Launch date: August 15, 1991
Source: Commonwealth of Independent States (former USSR) (CIS)
Launch site: PLESETSK MISSILE AND SPACE COMPLEX (PKMTR)

Note: This is SATELLITE DEBRIS
Your satellite tracking list
Your tracking list is empty




NASA's NSSDC Master Catalog

Two Line Element Set (TLE):
1 45316U 91056BE  24283.47163753  .00003941  00000-0  80592-2 0  9998
2 45316  82.5966 196.6294 0104421 112.0533 249.1727 13.30823659225068
Source of the keplerian elements: AFSPC